Vorticity
12 7 9 0 13 9 10 20 -1 4 7 5 -3 -4 -9 13 1 17 9 5 7 8 8 6 5 4 6 6 8 9 6 -8 17 11 19 7 13 5 1 8 9 12 7 3 1 4 4 6 5
5 8 7 8 9 2 11 -5 17 19 7 13 3 -0 -0 -5 14 29 8 7 6 8 7 5 7 6 5 8 8 8 4 -6 11 21 12 -1 26 20 -2 21 16 1 9 3 3 6 5 11 9
20 2 8 -4 3 6 5 13 14 -2 10 7 13 10 31 26 7 7 5 6 6 8 6 6 6 6 7 9 8 7 7 -2 2 3 33 7 28 -1 -0 16 4 -1 -2 2 10 13 10 9 7
15 14 -3 13 14 -5 4 12 7 -0 9 -2 8 11 8 9 11 5 5 5 6 6 6 4 3 4 6 6 7 7 7 5 -1 -2 6 -7 14 19 26 2 1 -1 4 5 7 7 7 6 2
6 2 13 6 -0 9 3 5 5 6 13 15 9 25 12 5 6 6 5 4 5 5 5 5 4 5 5 6 6 7 7 6 3 -2 3 8 4 -3 11 21 22 -6 7 6 6 6 3 1 7
6 3 4 3 6 -0 8 0 4 3 16 21 14 4 1 2 8 9 6 7 5 5 6 6 5 5 5 5 5 6 8 6 5 2 -3 0 7 5 4 -1 3 9 6 4 5 4 4 6 5
8 5 -0 3 4 6 4 3 -4 5 12 8 4 10 5 1 4 7 5 6 6 6 5 6 5 5 6 5 5 5 7 4 6 4 3 5 3 2 2 11 1 3 1 4 4 5 5 5 2
17 8 6 8 7 -5 7 3 4 0 12 4 1 -6 14 6 4 8 5 6 5 5 6 7 6 6 6 6 5 5 4 4 6 5 6 6 3 4 5 -0 -3 -0 7 6 5 4 4 5 7
7 7 4 3 -5 9 13 -6 17 3 2 10 20 16 9 6 9 6 4 9 9 10 5 6 7 8 6 6 7 5 4 5 3 4 7 2 2 6 5 4 5 4 4 1 5 4 5 5 5
17 6 7 8 11 8 12 12 8 -3 9 6 18 7 2 -1 1 5 5 14 0 -2 10 12 7 5 8 7 6 6 6 5 4 4 3 5 4 4 4 5 4 3 1 2 3 3 5 5 4
9 2 9 9 5 3 9 17 8 3 14 4 7 24 4 3 6 11 14 11 5 7 9 8 19 6 5 7 8 7 6 6 4 4 5 4 4 4 5 4 3 3 3 4 4 4 4 4 5
16 -3 12 15 -3 4 16 10 12 6 22 10 -0 19 8 11 8 6 7 12 7 10 9 8 9 12 10 5 6 8 7 7 7 7 8 6 6 6 5 5 4 4 4 5 5 5 3 4 4
11 4 2 8 1 3 2 3 4 7 5 22 12 12 14 6 2 3 3 12 11 8 8 7 9 11 3 14 11 6 5 7 7 8 8 7 12 4 6 8 8 7 8 7 6 8 7 6 8
3 5 7 2 4 9 -0 8 5 4 3 19 14 4 9 -1 -5 -3 5 2 14 3 7 7 8 10 14 9 -1 3 6 5 8 6 7 10 9 10 9 7 3 6 6 6 7 8 8 6 11
21 4 6 1 -1 6 5 -2 10 -2 6 6 15 6 9 7 4 1 2 8 8 11 8 6 4 7 14 5 14 19 18 10 6 6 7 7 5 5 4 6 4 7 6 5 5 5 7 5 6
15 -5 28 12 6 7 6 11 10 2 1 3 3 8 2 1 2 8 3 1 -6 8 6 2 12 4 13 10 7 11 16 11 10 10 10 8 5 8 6 5 8 12 5 6 8 5 7 7 5
15 30 10 11 6 4 3 4 10 4 2 -1 3 3 4 7 15 9 4 2 2 -1 6 3 6 7 7 13 13 7 5 9 9 6 8 9 12 10 8 12 15 12 8 9 10 7 9 7 7
13 9 7 10 6 -0 2 5 6 11 -0 5 -2 2 2 2 2 2 9 6 3 -0 2 1 8 6 3 4 17 13 12 10 8 9 8 8 10 6 9 5 8 8 9 7 4 6 6 2 6
-5 9 7 3 6 3 -1 4 7 7 16 3 8 0 6 0 0 2 2 12 8 2 -6 5 7 7 4 1 14 8 8 12 12 9 7 6 8 7 2 -0 3 3 7 9 8 9 0 10 7
4 3 4 9 2 9 7 1 21 4 6 15 6 3 -1 10 13 14 2 10 9 10 1 7 12 11 9 2 5 9 8 7 7 3 6 5 2 2 5 11 8 3 6 5 2 2 8 7 5
7 -0 10 8 6 10 14 28 27 14 -1 8 18 17 2 8 -5 6 18 5 15 6 10 2 6 5 8 9 6 10 6 11 1 5 1 10 8 3 8 7 7 8 11 8 5 11 10 9 4
5 -1 18 5 17 12 6 -2 15 33 14 3 11 20 14 10 7 1 11 10 20 21 8 11 2 7 9 11 10 8 5 7 7 7 14 14 6 5 2 3 4 4 5 5 7 4 5 9 16
18 5 19 0 14 10 13 16 7 28 20 19 14 16 10 20 20 12 2 2 15 15 14 7 3 -2 6 13 10 8 6 9 3 4 3 2 3 7 5 5 5 4 6 11 10 9 9 8 10
5 11 7 6 13 12 7 10 -4 2 3 8 7 9 6 5 8 16 14 -12 7 14 16 9 7 10 2 17 14 9 11 11 6 5 3 6 4 5 6 6 8 11 16 16 14 14 12 10 9
13 13 7 18 14 -2 12 13 12 6 3 5 7 6 12 7 12 9 19 13 11 8 10 14 10 6 5 16 11 7 10 9 12 6 5 3 6 7 12 15 17 16 15 13 14 15 14 9 9
20 4 -6 8 6 -1 10 5 7 4 0 2 1 1 14 16 9 5 17 15 11 6 10 5 17 7 5 14 11 12 12 8 7 6 5 5 10 15 17 17 17 15 13 15 12 17 12 10 6
5 5 17 -15 14 14 4 4 33 32 14 12 11 12 11 14 5 14 18 15 4 11 12 7 9 13 9 13 18 9 11 5 5 6 4 10 15 14 14 14 14 14 14 14 14 13 11 12 10
8 12 13 9 2 7 5 8 -7 13 18 13 13 12 8 9 18 14 17 15 9 8 7 7 5 11 11 10 8 8 8 7 5 6 7 11 5 4 5 5 6 6 6 8 10 12 12 12 12
9 -3 -3 17 5 10 5 6 6 9 -3 2 6 12 -0 9 8 11 5 8 13 10 6 7 5 11 10 12 11 11 7 7 5 6 6 6 3 3 4 4 6 6 6 7 6 6 5 6 6
32 30 24 -24 5 6 4 2 20 15 20 5 15 8 8 -2 -3 7 7 6 12 16 11 10 7 2 10 9 11 11 8 5 3 6 5 7 4 2 2 3 3 4 5 7 7 7 6 6 7
Height
3151 3151 3151 3150 3153 3149 3149 3151 3150 3150 3150 3150 3150 3151 3153 3151 3152 3156 3155 3154 3156 3157 3158 3158 3159 3159 3161 3161 3161 3161 3162 3162 3160 3156 3155 3154 3153 3127 3158 3155 3163 3166 3168 3172 3176 3178 3181 3183 3185
3154 3154 3154 3152 3153 3151 3152 3153 3152 3152 3152 3151 3151 3152 3152 3153 3153 3155 3157 3157 3158 3158 3159 3160 3162 3163 3163 3163 3163 3164 3165 3166 3162 3159 3159 3158 3155 3158 3159 3162 3165 3167 3171 3175 3178 3181 3184 3186 3188
3156 3156 3155 3155 3154 3154 3154 3155 3154 3154 3153 3153 3152 3153 3153 3154 3155 3157 3159 3159 3159 3161 3163 3164 3165 3165 3165 3165 3166 3167 3168 3168 3167 3165 3163 3162 3161 3162 3165 3166 3168 3171 3175 3179 3182 3185 3187 3190 3191
3158 3159 3159 3159 3157 3157 3158 3157 3157 3156 3156 3156 3155 3154 3155 3156 3159 3160 3160 3161 3162 3164 3165 3166 3167 3168 3168 3170 3170 3170 3170 3170 3171 3170 3168 3169 3169 3168 3169 3171 3172 3173 3179 3182 3186 3188 3191 3192 3193
3161 3161 3161 3160 3160 3159 3159 3159 3159 3159 3158 3156 3157 3156 3156 3160 3161 3162 3163 3163 3165 3166 3167 3169 3169 3170 3172 3173 3173 3173 3174 3174 3175 3175 3174 3175 3176 3176 3176 3176 3178 3180 3185 3187 3189 3191 3193 3195 3196
3163 3163 3162 3161 3160 3160 3160 3160 3161 3161 3159 3158 3159 3158 3159 3160 3163 3164 3164 3165 3166 3168 3169 3171 3172 3173 3174 3175 3176 3177 3177 3178 3179 3179 3178 3179 3180 3181 3182 3183 3187 3186 3188 3190 3192 3193 3195 3197 3198
3163 3164 3163 3162 3162 3162 3162 3163 3163 3162 3161 3161 3162 3161 3161 3161 3163 3165 3166 3167 3168 3170 3171 3172 3173 3175 3176 3178 3178 3179 3179 3180 3182 3183 3184 3184 3184 3185 3186 3188 3190 3189 3189 3193 3194 3195 3196 3198 3199
3164 3165 3165 3164 3164 3165 3164 3165 3164 3165 3164 3164 3164 3164 3163 3162 3166 3167 3168 3170 3170 3172 3172 3174 3175 3177 3179 3180 3180 3181 3182 3183 3185 3186 3186 3188 3188 3188 3189 3190 3192 3193 3195 3194 3198 3198 3198 3200 3202
3166 3167 3165 3165 3165 3165 3165 3166 3166 3166 3166 3165 3164 3166 3166 3165 3168 3169 3171 3172 3172 3173 3174 3176 3177 3178 3180 3181 3182 3183 3184 3185 3185 3187 3189 3190 3190 3191 3192 3192 3194 3195 3195 3198 3200 3201 3202 3202 3203
3167 3167 3167 3167 3165 3165 3166 3166 3168 3168 3167 3167 3166 3167 3168 3168 3169 3171 3172 3173 3175 3176 3176 3176 3178 3179 3181 3182 3183 3184 3186 3187 3187 3189 3190 3192 3193 3194 3195 3195 3196 3196 3198 3200 3201 3202 3204 3204 3204
3169 3168 3167 3167 3167 3166 3167 3167 3167 3167 3167 3168 3169 3168 3169 3170 3171 3172 3173 3174 3176 3177 3177 3178 3178 3180 3181 3183 3184 3186 3187 3188 3189 3189 3191 3192 3194 3196 3196 3197 3198 3199 3199 3201 3202 3202 3203 3204 3205
3169 3169 3169 3168 3168 3167 3167 3167 3167 3167 3168 3169 3170 3170 3172 3173 3173 3174 3175 3177 3178 3179 3179 3179 3180 3181 3182 3183 3185 3186 3188 3189 3190 3191 3192 3193 3194 3196 3197 3198 3198 3199 3201 3202 3202 3202 3203 3204 3204
3171 3171 3170 3170 3169 3168 3168 3167 3168 3168 3167 3168 3171 3172 3173 3174 3176 3176 3177 3179 3180 3180 3181 3182 3182 3182 3183 3184 3185 3186 3188 3189 3190 3192 3194 3195 3195 3195 3196 3198 3199 3200 3201 3202 3202 3202 3203 3204 3204
3172 3171 3171 3171 3171 3170 3170 3169 3169 3169 3169 3170 3171 3173 3174 3175 3177 3178 3179 3180 3181 3182 3183 3183 3183 3183 3183 3184 3185 3187 3188 3189 3191 3192 3193 3195 3196 3197 3198 3198 3199 3200 3201 3202 3202 3202 3202 3202 3203
3173 3173 3172 3171 3171 3170 3170 3170 3170 3170 3170 3172 3172 3173 3175 3176 3177 3178 3181 3182 3183 3184 3185 3185 3184 3184 3185 3185 3185 3186 3188 3189 3191 3192 3193 3194 3195 3197 3198 3198 3199 3199 3199 3200 3201 3201 3201 3202 3202
3172 3171 3170 3171 3171 3170 3170 3170 3170 3171 3172 3172 3173 3174 3175 3176 3177 3179 3182 3184 3185 3186 3187 3187 3186 3186 3186 3186 3187 3187 3188 3189 3191 3193 3194 3195 3196 3196 3196 3197 3198 3198 3199 3200 3200 3200 3201 3200 3201
3173 3170 3170 3171 3170 3169 3169 3169 3169 3171 3172 3173 3174 3175 3175 3176 3177 3179 3182 3184 3186 3188 3189 3188 3188 3188 3188 3188 3189 3188 3190 3191 3192 3193 3194 3195 3195 3196 3197 3197 3198 3198 3199 3200 3201 3201 3201 3201 3200
3174 3172 3172 3172 3172 3170 3169 3168 3168 3169 3172 3173 3173 3174 3176 3177 3178 3179 3181 3184 3187 3189 3190 3190 3190 3190 3190 3190 3190 3191 3191 3192 3193 3194 3194 3195 3196 3196 3196 3197 3197 3198 3199 3200 3201 3201 3201 3199 3201
3174 3172 3171 3171 3170 3169 3168 3167 3166 3167 3170 3172 3173 3174 3176 3177 3178 3178 3180 3182 3185 3188 3190 3190 3190 3190 3191 3191 3191 3192 3193 3193 3194 3194 3195 3195 3196 3197 3196 3197 3197 3198 3198 3199 3200 3199 3198 3196 3199
3175 3174 3172 3171 3170 3169 3167 3167 3165 3165 3168 3171 3173 3174 3175 3176 3178 3178 3180 3181 3184 3187 3189 3190 3190 3190 3191 3192 3192 3192 3193 3193 3194 3195 3196 3197 3197 3197 3195 3189 3196 3196 3197 3198 3198 3198 3197 3197 3197
3175 3174 3173 3171 3170 3169 3167 3166 3166 3165 3167 3169 3171 3173 3174 3175 3177 3179 3179 3181 3182 3184 3186 3188 3186 3189 3190 3191 3192 3193 3193 3194 3195 3195 3195 3196 3196 3196 3195 3195 3196 3196 3196 3195 3195 3195 3194 3194 3194
3174 3174 3172 3170 3171 3170 3169 3169 3166 3165 3167 3168 3170 3171 3173 3174 3175 3177 3179 3180 3180 3181 3184 3186 3187 3188 3189 3189 3190 3192 3193 3193 3193 3193 3194 3194 3195 3196 3195 3194 3194 3194 3193 3193 3193 3192 3191 3191 3190
3174 3174 3172 3171 3171 3171 3170 3170 3166 3165 3166 3167 3169 3170 3171 3172 3173 3175 3178 3178 3179 3179 3180 3182 3184 3184 3186 3187 3188 3189 3191 3191 3192 3193 3193 3194 3193 3193 3192 3191 3190 3189 3188 3188 3187 3187 3187 3188 3188
3173 3173 3172 3171 3172 3172 3170 3170 3167 3166 3167 3167 3167 3169 3170 3172 3172 3173 3174 3176 3178 3177 3177 3178 3180 3182 3183 3185 3186 3188 3189 3190 3190 3192 3193 3193 3193 3191 3190 3188 3187 3186 3185 3184 3184 3184 3184 3185 3186
3171 3172 3174 3175 3174 3173 3170 3170 3167 3167 3166 3167 3167 3169 3170 3171 3171 3172 3172 3174 3177 3177 3176 3175 3177 3179 3180 3182 3183 3186 3188 3188 3189 3190 3191 3190 3190 3189 3187 3185 3184 3183 3182 3182 3181 3181 3182 3183 3184
3169 3172 3173 3178 3177 3171 3170 3169 3168 3167 3167 3169 3169 3169 3170 3170 3171 3172 3173 3174 3175 3176 3175 3174 3175 3178 3179 3180 3181 3183 3185 3187 3188 3189 3190 3189 3188 3187 3185 3184 3183 3182 3181 3181 3181 3180 3181 3182 3182
3169 3170 3173 3174 3176 3173 3170 3168 3166 3167 3168 3169 3170 3170 3170 3171 3172 3172 3172 3173 3173 3174 3175 3174 3175 3176 3178 3179 3180 3182 3184 3186 3188 3188 3188 3188 3187 3186 3185 3184 3183 3182 3180 3180 3179 3180 3180 3180 3180
3167 3169 3171 3173 3175 3175 3171 3169 3168 3168 3168 3169 3170 3170 3171 3171 3172 3172 3171 3171 3170 3171 3173 3173 3174 3175 3176 3178 3180 3181 3184 3185 3186 3187 3187 3187 3186 3186 3185 3184 3184 3183 3181 3180 3180 3179 3178 3178 3178
3164 3165 3167 3171 3171 3172 3176 3170 3168 3168 3169 3169 3170 3171 3172 3172 3172 3172 3171 3170 3169 3169 3171 3172 3172 3172 3173 3176 3178 3180 3183 3185 3186 3186 3185 3185 3186 3186 3185 3184 3184 3183 3181 3180 3178 3177 3177 3176 3175
3161 3163 3165 3167 3170 3169 3170 3170 3167 3167 3168 3168 3169 3170 3171 3172 3172 3171 3171 3170 3170 3168 3170 3172 3173 3173 3174 3175 3177 3178 3180 3182 3183 3183 3183 3184 3184 3184 3183 3182 3182 3181 3180 3179 3178 3177 3176 3175 3175